When you browse on this site, cookies collect data to enhance your experience and personalize the content and advertising you see.
Visit our Privacy Policy to learn more. By continuing to use the site, you agree to this use of cookies and data.
  • Em Portugal
  • Lista de países
  • Para 7 dias
  • Temperatura da água
  • Mapa do tempo
  • Widgets de tempo
  • user-avatar
    Iniciar Sessão

    Previsão horária em Sumgait

    Hoje, 23 Setembro, Segunda-feira

    Tempo Temperatura Precipitação Vento Pressão Humidade
    00:00 +16°C° 0 mm 3 m/s 743 mmHg 75%
    01:00 +14°C° 0 mm 3 m/s 743 mmHg 77%
    02:00 +14°C° 0 mm 3 m/s 743 mmHg 79%
    03:00 +15°C° 0 mm 2 m/s 743 mmHg 82%
    04:00 +15°C° 0 mm 2 m/s 743 mmHg 82%
    05:00 +15°C° 0 mm 2 m/s 743 mmHg 81%
    06:00 +15°C° 0 mm 1 m/s 743 mmHg 81%
    07:00 +16°C° 0.1 mm 1 m/s 743 mmHg 77%
    08:00 +18°C° 0.1 mm 1 m/s 743 mmHg 72%
    09:00 +18°C° 0 mm 2 m/s 743 mmHg 64%
    10:00 +18°C° 0.1 mm 2 m/s 743 mmHg 63%
    11:00 +19°C° 0.1 mm 3 m/s 742 mmHg 62%
    12:00 +19°C° 0.1 mm 3 m/s 742 mmHg 61%
    13:00 +20°C° 0 mm 3 m/s 741 mmHg 61%
    14:00 +20°C° 0 mm 4 m/s 741 mmHg 61%
    15:00 +21°C° 0 mm 4 m/s 741 mmHg 62%
    16:00 +20°C° 0 mm 3 m/s 741 mmHg 66%
    17:00 +20°C° 0 mm 2 m/s 741 mmHg 69%
    18:00 +20°C° 0 mm 1 m/s 741 mmHg 73%
    19:00 +19°C° 0.1 mm 2 m/s 741 mmHg 72%
    20:00 +18°C° 0.1 mm 3 m/s 742 mmHg 70%
    21:00 +17°C° 0.1 mm 5 m/s 742 mmHg 69%
    22:00 +17°C° 0 mm 5 m/s 742 mmHg 67%
    23:00 +17°C° 0 mm 5 m/s 742 mmHg 66%

    Amanhã, 24 Setembro, Terça-feira

    Tempo Temperatura Precipitação Vento Pressão Humidade
    00:00 +17°C° 0 mm 5 m/s 742 mmHg 64%
    01:00 +18°C° 0 mm 4 m/s 741 mmHg 66%
    02:00 +17°C° 0 mm 3 m/s 741 mmHg 68%
    03:00 +17°C° 0 mm 2 m/s 741 mmHg 70%
    04:00 +17°C° 0 mm 2 m/s 741 mmHg 70%
    05:00 +18°C° 0 mm 1 m/s 741 mmHg 69%
    06:00 +18°C° 0 mm 1 m/s 741 mmHg 69%
    07:00 +19°C° 0 mm 1 m/s 742 mmHg 67%
    08:00 +19°C° 0 mm 1 m/s 742 mmHg 65%
    09:00 +20°C° 0 mm 1 m/s 742 mmHg 63%
    10:00 +20°C° 0 mm 2 m/s 742 mmHg 60%
    11:00 +21°C° 0 mm 2 m/s 742 mmHg 57%
    12:00 +22°C° 0 mm 3 m/s 741 mmHg 54%
    13:00 +22°C° 0 mm 3 m/s 741 mmHg 54%
    14:00 +24°C° 0 mm 3 m/s 741 mmHg 53%
    15:00 +23°C° 0 mm 4 m/s 740 mmHg 53%
    16:00 +22°C° 0 mm 3 m/s 740 mmHg 57%
    17:00 +21°C° 0 mm 3 m/s 740 mmHg 62%
    18:00 +21°C° 0 mm 2 m/s 740 mmHg 66%
    19:00 +20°C° 0 mm 2 m/s 740 mmHg 68%
    20:00 +21°C° 0 mm 1 m/s 740 mmHg 70%
    21:00 +21°C° 0 mm 1 m/s 741 mmHg 71%
    22:00 +21°C° 0 mm 1 m/s 740 mmHg 73%
    23:00 +18°C° 0 mm 0 m/s 740 mmHg 74%

    Depois de amanhã, 25 Setembro, Quarta-feira

    Tempo Temperatura Precipitação Vento Pressão Humidade
    00:00 +18°C° 0 mm 0 m/s 740 mmHg 76%
    01:00 +17°C° 0 mm 0 m/s 739 mmHg 78%
    02:00 +17°C° 0 mm 0 m/s 739 mmHg 80%
    03:00 +19°C° 0 mm 1 m/s 739 mmHg 82%
    04:00 +19°C° 0 mm 1 m/s 739 mmHg 82%
    05:00 +18°C° 0 mm 2 m/s 739 mmHg 82%
    06:00 +17°C° 0 mm 2 m/s 739 mmHg 83%
    07:00 +19°C° 0 mm 3 m/s 739 mmHg 76%
    08:00 +20°C° 0 mm 4 m/s 739 mmHg 69%
    09:00 +22°C° 0 mm 5 m/s 739 mmHg 63%
    10:00 +22°C° 0 mm 4 m/s 739 mmHg 59%
    11:00 +23°C° 0 mm 4 m/s 739 mmHg 55%
    12:00 +25°C° 0 mm 3 m/s 739 mmHg 51%
    13:00 +25°C° 0 mm 4 m/s 739 mmHg 54%
    14:00 +23°C° 0 mm 6 m/s 739 mmHg 58%
    15:00 +23°C° 0 mm 7 m/s 739 mmHg 61%
    16:00 +22°C° 0 mm 8 m/s 739 mmHg 66%
    17:00 +20°C° 0 mm 8 m/s 739 mmHg 70%
    18:00 +18°C° 0 mm 8 m/s 739 mmHg 74%
    19:00 +18°C° 0 mm 7 m/s 740 mmHg 74%
    20:00 +19°C° 0 mm 6 m/s 740 mmHg 74%
    21:00 +19°C° 0 mm 6 m/s 741 mmHg 73%
    22:00 +19°C° 0 mm 5 m/s 740 mmHg 74%
    23:00 +18°C° 0 mm 4 m/s 740 mmHg 74%

    26 Setembro, Quinta-feira

    Tempo Temperatura Precipitação Vento Pressão Humidade
    00:00 +18°C° 0 mm 3 m/s 740 mmHg 75%
    01:00 +18°C° 0 mm 3 m/s 740 mmHg 76%
    02:00 +17°C° 0 mm 2 m/s 740 mmHg 77%
    03:00 +18°C° 0 mm 1 m/s 739 mmHg 79%
    04:00 +18°C° 0 mm 1 m/s 739 mmHg 78%
    05:00 +18°C° 0 mm 1 m/s 740 mmHg 78%
    06:00 +18°C° 0 mm 1 m/s 740 mmHg 77%
    07:00 +19°C° 0 mm 1 m/s 740 mmHg 71%
    08:00 +20°C° 0 mm 2 m/s 740 mmHg 64%
    09:00 +21°C° 0 mm 3 m/s 740 mmHg 57%
    10:00 +22°C° 0 mm 3 m/s 740 mmHg 54%
    11:00 +23°C° 0 mm 4 m/s 740 mmHg 50%
    12:00 +26°C° 0 mm 5 m/s 739 mmHg 46%
    13:00 +26°C° 0 mm 4 m/s 739 mmHg 48%
    14:00 +26°C° 0 mm 3 m/s 739 mmHg 49%
    15:00 +26°C° 0 mm 2 m/s 738 mmHg 50%
    16:00 +24°C° 0 mm 3 m/s 738 mmHg 54%
    17:00 +22°C° 0 mm 4 m/s 738 mmHg 59%
    18:00 +20°C° 0 mm 5 m/s 738 mmHg 63%
    19:00 +20°C° 0 mm 5 m/s 739 mmHg 65%
    20:00 +20°C° 0 mm 5 m/s 739 mmHg 66%
    21:00 +19°C° 0 mm 6 m/s 739 mmHg 68%
    22:00 +19°C° 0 mm 5 m/s 739 mmHg 66%
    23:00 +19°C° 0 mm 4 m/s 739 mmHg 65%

    27 Setembro, Sexta-feira

    Tempo Temperatura Precipitação Vento Pressão Humidade
    00:00 +19°C° 0 mm 4 m/s 739 mmHg 64%
    01:00 +19°C° 0 mm 3 m/s 739 mmHg 63%
    02:00 +18°C° 0 mm 3 m/s 739 mmHg 62%
    03:00 +18°C° 0 mm 3 m/s 739 mmHg 61%
    04:00 +18°C° 0 mm 3 m/s 739 mmHg 61%
    05:00 +18°C° 0 mm 2 m/s 739 mmHg 62%
    06:00 +18°C° 0 mm 2 m/s 739 mmHg 62%
    07:00 +19°C° 0 mm 2 m/s 739 mmHg 58%
    08:00 +20°C° 0 mm 3 m/s 739 mmHg 54%
    09:00 +22°C° 0 mm 3 m/s 739 mmHg 50%
    10:00 +24°C° 0 mm 3 m/s 739 mmHg 48%
    11:00 +25°C° 0 mm 3 m/s 739 mmHg 46%
    12:00 +26°C° 0 mm 4 m/s 739 mmHg 44%
    13:00 +25°C° 0 mm 4 m/s 738 mmHg 45%
    14:00 +25°C° 0 mm 5 m/s 738 mmHg 46%
    15:00 +23°C° 0 mm 6 m/s 737 mmHg 48%
    16:00 +22°C° 0 mm 6 m/s 738 mmHg 51%
    17:00 +21°C° 0 mm 6 m/s 738 mmHg 54%
    18:00 +20°C° 0 mm 6 m/s 738 mmHg 58%
    19:00 +20°C° 0 mm 5 m/s 738 mmHg 59%
    20:00 +19°C° 0 mm 4 m/s 738 mmHg 60%
    21:00 +19°C° 0 mm 4 m/s 738 mmHg 62%
    22:00 +19°C° 0 mm 3 m/s 738 mmHg 61%
    23:00 +19°C° 0 mm 3 m/s 738 mmHg 61%

    28 Setembro, Sábado

    Tempo Temperatura Precipitação Vento Pressão Humidade
    00:00 +19°C° 0 mm 2 m/s 738 mmHg 61%
    01:00 +19°C° 0 mm 2 m/s 737 mmHg 59%
    02:00 +19°C° 0 mm 1 m/s 737 mmHg 57%
    03:00 +19°C° 0 mm 1 m/s 737 mmHg 55%
    04:00 +19°C° 0 mm 1 m/s 736 mmHg 56%
    05:00 +19°C° 0 mm 1 m/s 736 mmHg 57%
    06:00 +19°C° 0 mm 1 m/s 736 mmHg 57%
    07:00 +20°C° 0 mm 1 m/s 736 mmHg 51%
    08:00 +22°C° 0 mm 1 m/s 736 mmHg 45%
    09:00 +23°C° 0 mm 1 m/s 736 mmHg 39%
    10:00 +24°C° 0 mm 2 m/s 736 mmHg 37%
    11:00 +25°C° 0 mm 2 m/s 736 mmHg 36%
    12:00 +27°C° 0 mm 2 m/s 735 mmHg 34%
    13:00 +27°C° 0 mm 3 m/s 735 mmHg 35%
    14:00 +27°C° 0 mm 4 m/s 735 mmHg 36%
    15:00 +27°C° 0 mm 5 m/s 735 mmHg 36%
    16:00 +24°C° 0 mm 8 m/s 736 mmHg 44%
    17:00 +22°C° 0 mm 12 m/s 737 mmHg 52%
    18:00 +19°C° 0 mm 16 m/s 738 mmHg 59%
    19:00 +18°C° 0 mm 15 m/s 739 mmHg 61%
    20:00 +18°C° 0 mm 15 m/s 739 mmHg 62%
    21:00 +17°C° 0 mm 15 m/s 740 mmHg 64%
    22:00 +17°C° 0 mm 14 m/s 741 mmHg 65%
    23:00 +15°C° 0 mm 13 m/s 741 mmHg 66%
    Mostrar mais